| time (UTC) | temp F | wind direction | speed MPH | gust MPH | rain 1hr in | rain 24hr in | rain mn in | humidity % | barometer mb |
| 20260902203543 | 49 | 0 | 0.0 | 0.0 | 0.00 | 0.00 | 0.00 | 79 | 1002.3 |
| 20260902203115 | 50 | 0 | 0.0 | 0.0 | 0.00 | 0.00 | 0.00 | 79 | 1002.4 |
| 20260902202543 | 50 | 0 | 0.0 | 0.0 | 0.00 | 0.00 | 0.00 | 78 | 1002.4 |
| 20260902202043 | 50 | 0 | 0.0 | 0.0 | 0.00 | 0.00 | 0.00 | 78 | 1002.4 |
| 20260902201602 | 50 | 0 | 0.0 | 0.0 | 0.00 | 0.00 | 0.00 | 78 | 1002.5 |
| 20260902201043 | 50 | 0 | 0.0 | 0.0 | 0.00 | 0.00 | 0.00 | 79 | 1002.4 |
| 20260902200543 | 51 | 0 | 0.0 | 0.0 | 0.00 | 0.00 | 0.00 | 79 | 1002.4 |
| 20260902200108 | 51 | 0 | 0.0 | 0.0 | 0.00 | 0.00 | 0.00 | 78 | 1002.4 |
| 20260902195543 | 51 | 0 | 0.0 | 0.0 | 0.00 | 0.00 | 0.00 | 78 | 1002.5 |
| 20260902195044 | 51 | 0 | 0.0 | 0.0 | 0.00 | 0.00 | 0.00 | 78 | 1002.5 |
| 20260902194604 | 51 | 0 | 0.0 | 0.0 | 0.00 | 0.00 | 0.00 | 78 | 1002.4 |
| 20260902194043 | 52 | 0 | 0.0 | 0.0 | 0.00 | 0.00 | 0.00 | 78 | 1002.4 |
| 20260902193544 | 52 | 0 | 0.0 | 0.0 | 0.00 | 0.00 | 0.00 | 78 | 1002.4 |
| 20260902193100 | 52 | 0 | 0.0 | 0.0 | 0.00 | 0.00 | 0.00 | 78 | 1002.5 |
| 20260902192543 | 53 | 0 | 0.0 | 2.0 | 0.00 | 0.00 | 0.00 | 78 | 1002.4 |
| 20260902192043 | 53 | 0 | 0.0 | 3.0 | 0.00 | 0.00 | 0.00 | 78 | 1002.5 |
| 20260902191557 | 53 | 316 | 1.0 | 3.0 | 0.00 | 0.00 | 0.00 | 78 | 1002.4 |
| 20260902191042 | 53 | 0 | 0.0 | 0.0 | 0.00 | 0.00 | 0.00 | 78 | 1002.5 |
| 20260902190544 | 53 | 0 | 0.0 | 0.0 | 0.00 | 0.00 | 0.00 | 78 | 1002.5 |
| 20260902190114 | 54 | 0 | 0.0 | 0.0 | 0.00 | 0.00 | 0.00 | 77 | 1002.5 |
| 20260902185546 | 54 | 0 | 0.0 | 0.0 | 0.00 | 0.00 | 0.00 | 77 | 1002.6 |
| 20260902185043 | 54 | 0 | 0.0 | 0.0 | 0.00 | 0.00 | 0.00 | 77 | 1002.5 |
| 20260902184603 | 54 | 0 | 0.0 | 0.0 | 0.00 | 0.00 | 0.00 | 77 | 1002.5 |
| 20260902184043 | 55 | 0 | 0.0 | 2.0 | 0.00 | 0.00 | 0.00 | 77 | 1002.5 |
| 20260902183543 | 55 | 0 | 0.0 | 2.0 | 0.00 | 0.00 | 0.00 | 77 | 1002.6 |
| 20260902183103 | 55 | 0 | 0.0 | 2.0 | 0.00 | 0.00 | 0.00 | 77 | 1002.5 |
| 20260902182544 | 55 | 309 | 0.0 | 2.0 | 0.00 | 0.00 | 0.00 | 77 | 1002.6 |
| 20260902182047 | 55 | 0 | 0.0 | 3.0 | 0.00 | 0.00 | 0.00 | 77 | 1002.6 |
| 20260902181557 | 55 | 309 | 1.0 | 3.0 | 0.00 | 0.00 | 0.00 | 76 | 1002.6 |
| 20260902181042 | 56 | 309 | 1.0 | 3.0 | 0.00 | 0.00 | 0.00 | 76 | 1002.6 |
| 20260902180542 | 56 | 307 | 1.0 | 6.0 | 0.00 | 0.00 | 0.00 | 76 | 1002.6 |
| 20260902180105 | 56 | 307 | 0.0 | 6.0 | 0.00 | 0.00 | 0.00 | 76 | 1002.6 |
| 20260902175543 | 56 | 352 | 1.0 | 2.0 | 0.00 | 0.00 | 0.00 | 76 | 1002.7 |
| 20260902175044 | 56 | 0 | 0.0 | 2.0 | 0.00 | 0.00 | 0.00 | 76 | 1002.5 |
| 20260902174605 | 56 | 5 | 0.0 | 2.0 | 0.00 | 0.00 | 0.00 | 76 | 1002.5 |
| 20260902174044 | 56 | 0 | 0.0 | 5.0 | 0.00 | 0.00 | 0.00 | 75 | 1002.6 |
| 20260902173544 | 57 | 0 | 1.0 | 5.0 | 0.00 | 0.00 | 0.00 | 76 | 1002.6 |
| 20260902173107 | 57 | 289 | 2.0 | 5.0 | 0.00 | 0.00 | 0.00 | 75 | 1002.6 |
| 20260902172542 | 57 | 277 | 2.0 | 5.0 | 0.00 | 0.00 | 0.00 | 75 | 1002.6 |
| 20260902172047 | 57 | 314 | 2.0 | 5.0 | 0.00 | 0.00 | 0.00 | 75 | 1002.5 |
| 20260902171609 | 58 | 276 | 2.0 | 5.0 | 0.00 | 0.00 | 0.00 | 74 | 1002.5 |
| 20260902171044 | 58 | 303 | 2.0 | 8.0 | 0.00 | 0.00 | 0.00 | 74 | 1002.5 |
| 20260902170543 | 58 | 267 | 3.0 | 8.0 | 0.00 | 0.00 | 0.00 | 74 | 1002.6 |
| 20260902170109 | 58 | 342 | 2.0 | 8.0 | 0.00 | 0.00 | 0.00 | 74 | 1002.6 |
| 20260902165543 | 58 | 326 | 3.0 | 7.0 | 0.00 | 0.00 | 0.00 | 74 | 1002.6 |
| 20260902165043 | 59 | 291 | 1.0 | 8.0 | 0.00 | 0.00 | 0.00 | 74 | 1002.6 |
| 20260902164559 | 59 | 5 | 1.0 | 8.0 | 0.00 | 0.00 | 0.00 | 73 | 1002.6 |
| 20260902164043 | 59 | 286 | 2.0 | 7.0 | 0.00 | 0.00 | 0.00 | 73 | 1002.5 |
| 20260902163544 | 59 | 258 | 2.0 | 7.0 | 0.00 | 0.00 | 0.00 | 73 | 1002.6 |
| 20260902163106 | 59 | 312 | 1.0 | 8.0 | 0.00 | 0.00 | 0.00 | 73 | 1002.6 |
| 20260902162544 | 60 | 350 | 2.0 | 8.0 | 0.00 | 0.00 | 0.00 | 73 | 1002.6 |
| 20260902162042 | 60 | 309 | 2.0 | 9.0 | 0.00 | 0.00 | 0.00 | 73 | 1002.6 |
| 20260902161605 | 60 | 320 | 3.0 | 9.0 | 0.00 | 0.00 | 0.00 | 74 | 1002.7 |
| 20260902161044 | 60 | 299 | 4.0 | 9.0 | 0.00 | 0.00 | 0.00 | 74 | 1002.6 |
| 20260902160543 | 60 | 295 | 3.0 | 9.0 | 0.00 | 0.00 | 0.00 | 73 | 1002.6 |
| 20260902160109 | 60 | 304 | 2.0 | 7.0 | 0.00 | 0.00 | 0.00 | 74 | 1002.6 |
| 20260902155543 | 60 | 341 | 3.0 | 7.0 | 0.00 | 0.00 | 0.00 | 73 | 1002.6 |
| 20260902155045 | 60 | 275 | 3.0 | 7.0 | 0.00 | 0.00 | 0.00 | 73 | 1002.7 |
| 20260902154604 | 60 | 40 | 2.0 | 8.0 | 0.00 | 0.00 | 0.00 | 73 | 1002.7 |
| 20260902154043 | 60 | 316 | 3.0 | 8.0 | 0.00 | 0.00 | 0.00 | 73 | 1002.7 |
| 20260902153546 | 60 | 317 | 3.0 | 8.0 | 0.00 | 0.00 | 0.00 | 72 | 1002.7 |
| 20260902153100 | 60 | 241 | 2.0 | 8.0 | 0.00 | 0.00 | 0.00 | 71 | 1002.7 |
| 20260902152542 | 60 | 352 | 2.0 | 8.0 | 0.00 | 0.00 | 0.00 | 72 | 1002.8 |
| 20260902152043 | 61 | 260 | 3.0 | 8.0 | 0.00 | 0.00 | 0.00 | 71 | 1002.8 |
| 20260902151613 | 61 | 274 | 3.0 | 10.0 | 0.00 | 0.00 | 0.00 | 70 | 1002.7 |
| 20260902151044 | 61 | 254 | 3.0 | 10.0 | 0.00 | 0.00 | 0.00 | 70 | 1002.8 |
| 20260902150543 | 62 | 265 | 3.0 | 10.0 | 0.00 | 0.00 | 0.00 | 70 | 1002.8 |
| 20260902145543 | 62 | 267 | 2.0 | 11.0 | 0.00 | 0.00 | 0.00 | 68 | 1003.0 |
| 20260902145044 | 62 | 269 | 3.0 | 11.0 | 0.00 | 0.00 | 0.00 | 67 | 1002.9 |
| 20260902144555 | 63 | 269 | 3.0 | 12.0 | 0.00 | 0.00 | 0.00 | 67 | 1002.8 |
| 20260902144043 | 63 | 293 | 5.0 | 12.0 | 0.00 | 0.00 | 0.00 | 68 | 1002.8 |
| 20260902143543 | 63 | 328 | 3.0 | 10.0 | 0.00 | 0.00 | 0.00 | 67 | 1002.9 |
| 20260902143110 | 63 | 352 | 4.0 | 11.0 | 0.00 | 0.00 | 0.00 | 67 | 1002.9 |
| 20260902142543 | 63 | 271 | 4.0 | 11.0 | 0.00 | 0.00 | 0.00 | 67 | 1002.9 |
| 20260902142047 | 64 | 318 | 4.0 | 10.0 | 0.00 | 0.00 | 0.00 | 67 | 1003.0 |
| 20260902141553 | 64 | 309 | 3.0 | 9.0 | 0.00 | 0.00 | 0.00 | 67 | 1003.1 |
| 20260902141044 | 64 | 283 | 4.0 | 9.0 | 0.00 | 0.00 | 0.00 | 66 | 1003.1 |
| 20260902140542 | 64 | 344 | 3.0 | 11.0 | 0.00 | 0.00 | 0.00 | 67 | 1003.0 |
| 20260902135543 | 64 | 308 | 4.0 | 10.0 | 0.00 | 0.00 | 0.00 | 66 | 1003.1 |
| 20260902135043 | 64 | 341 | 3.0 | 10.0 | 0.00 | 0.00 | 0.00 | 66 | 1003.2 |
| 20260902134602 | 64 | 338 | 4.0 | 9.0 | 0.00 | 0.00 | 0.00 | 67 | 1003.4 |
| 20260902134042 | 64 | 239 | 5.0 | 10.0 | 0.00 | 0.00 | 0.00 | 66 | 1003.2 |
| 20260902133543 | 65 | 313 | 3.0 | 10.0 | 0.00 | 0.00 | 0.00 | 67 | 1003.3 |
| 20260902133104 | 65 | 300 | 4.0 | 11.0 | 0.00 | 0.00 | 0.00 | 67 | 1003.2 |
| 20260902132542 | 65 | 5 | 4.0 | 11.0 | 0.00 | 0.00 | 0.00 | 67 | 1003.2 |
| 20260902132042 | 65 | 302 | 3.0 | 10.0 | 0.00 | 0.00 | 0.00 | 66 | 1003.1 |
| 20260902131607 | 65 | 241 | 4.0 | 11.0 | 0.00 | 0.00 | 0.00 | 67 | 1003.1 |
| 20260902131043 | 65 | 264 | 3.0 | 11.0 | 0.00 | 0.00 | 0.00 | 66 | 1003.1 |
| 20260902130543 | 65 | 316 | 2.0 | 11.0 | 0.00 | 0.00 | 0.00 | 65 | 1003.1 |
| 20260902130059 | 65 | 269 | 4.0 | 11.0 | 0.00 | 0.00 | 0.00 | 63 | 1003.1 |
| 20260902125547 | 65 | 317 | 3.0 | 10.0 | 0.00 | 0.00 | 0.00 | 63 | 1003.1 |
| 20260902125043 | 66 | 297 | 3.0 | 10.0 | 0.00 | 0.00 | 0.00 | 62 | 1003.1 |
| 20260902124556 | 66 | 267 | 4.0 | 10.0 | 0.00 | 0.00 | 0.00 | 62 | 1003.1 |
| 20260902124042 | 66 | 266 | 3.0 | 9.0 | 0.00 | 0.00 | 0.00 | 61 | 1003.1 |
| 20260902123542 | 66 | 348 | 4.0 | 10.0 | 0.00 | 0.00 | 0.00 | 61 | 1003.1 |
| 20260902123051 | 66 | 310 | 3.0 | 10.0 | 0.00 | 0.00 | 0.00 | 61 | 1003.1 |
| 20260902122543 | 67 | 326 | 3.0 | 9.0 | 0.00 | 0.00 | 0.00 | 62 | 1003.1 |
| 20260902122042 | 67 | 288 | 3.0 | 10.0 | 0.00 | 0.00 | 0.00 | 62 | 1003.1 |
| 20260902121601 | 67 | 315 | 3.0 | 10.0 | 0.00 | 0.00 | 0.00 | 62 | 1003.1 |
| 20260902121042 | 67 | 280 | 4.0 | 9.0 | 0.00 | 0.00 | 0.00 | 62 | 1003.2 |
| 20260902120542 | 67 | 277 | 3.0 | 9.0 | 0.00 | 0.00 | 0.00 | 62 | 1003.3 |
| 20260902115543 | 67 | 286 | 4.0 | 9.0 | 0.00 | 0.00 | 0.00 | 61 | 1003.4 |
| 20260902115042 | 68 | 352 | 3.0 | 8.0 | 0.00 | 0.00 | 0.00 | 61 | 1003.3 |
| 20260902114557 | 68 | 346 | 2.0 | 10.0 | 0.00 | 0.00 | 0.00 | 61 | 1003.4 |
| 20260902114043 | 68 | 299 | 4.0 | 10.0 | 0.00 | 0.00 | 0.00 | 59 | 1003.4 |
| 20260902113542 | 68 | 315 | 2.0 | 9.0 | 0.00 | 0.00 | 0.00 | 61 | 1003.5 |
| 20260902113052 | 68 | 340 | 4.0 | 12.0 | 0.00 | 0.00 | 0.00 | 60 | 1003.5 |
| 20260902112542 | 69 | 340 | 5.0 | 12.0 | 0.00 | 0.00 | 0.00 | 60 | 1003.6 |
| 20260902112042 | 68 | 347 | 3.0 | 9.0 | 0.00 | 0.00 | 0.00 | 62 | 1003.5 |
| 20260902111551 | 68 | 270 | 0.0 | 6.0 | 0.00 | 0.00 | 0.00 | 62 | 1003.5 |
| 20260902111044 | 67 | 111 | 0.0 | 6.0 | 0.00 | 0.00 | 0.00 | 61 | 1003.6 |
| 20260902110543 | 66 | 0 | 2.0 | 6.0 | 0.00 | 0.00 | 0.00 | 61 | 1003.6 |
| 20260902105542 | 66 | 123 | 1.0 | 4.0 | 0.00 | 0.00 | 0.00 | 61 | 1003.5 |
| 20260902105043 | 65 | 103 | 1.0 | 6.0 | 0.00 | 0.00 | 0.00 | 61 | 1003.6 |
| 20260902104616 | 65 | 101 | 2.0 | 6.0 | 0.00 | 0.00 | 0.00 | 63 | 1003.6 |
| 20260902104043 | 65 | 103 | 2.0 | 7.0 | 0.00 | 0.00 | 0.00 | 62 | 1003.6 |
| 20260902103542 | 64 | 0 | 2.0 | 7.0 | 0.00 | 0.00 | 0.00 | 63 | 1003.5 |
| 20260902103052 | 64 | 120 | 2.0 | 7.0 | 0.00 | 0.00 | 0.00 | 62 | 1003.7 |
| 20260902102542 | 64 | 111 | 3.0 | 7.0 | 0.00 | 0.00 | 0.00 | 62 | 1003.7 |
| 20260902102043 | 64 | 120 | 2.0 | 7.0 | 0.00 | 0.00 | 0.00 | 62 | 1003.7 |
| 20260902101601 | 64 | 91 | 2.0 | 6.0 | 0.00 | 0.00 | 0.00 | 65 | 1003.8 |
| 20260902101043 | 64 | 107 | 2.0 | 6.0 | 0.00 | 0.00 | 0.00 | 65 | 1003.9 |
| 20260902100543 | 64 | 98 | 2.0 | 6.0 | 0.00 | 0.00 | 0.00 | 65 | 1003.8 |
| 20260902100119 | 64 | 126 | 2.0 | 6.0 | 0.00 | 0.00 | 0.00 | 66 | 1003.9 |
| 20260902095544 | 64 | 102 | 2.0 | 6.0 | 0.00 | 0.02 | 0.00 | 69 | 1003.9 |
| 20260902095043 | 63 | 107 | 0.0 | 4.0 | 0.00 | 0.02 | 0.00 | 72 | 1004.0 |
| 20260902094555 | 63 | 105 | 1.0 | 4.0 | 0.00 | 0.02 | 0.00 | 70 | 1004.0 |
| 20260902094042 | 62 | 121 | 1.0 | 4.0 | 0.00 | 0.02 | 0.00 | 73 | 1003.9 |
| 20260902093542 | 62 | 0 | 0.0 | 4.0 | 0.00 | 0.02 | 0.00 | 74 | 1004.0 |
| 20260902093122 | 61 | 120 | 0.0 | 4.0 | 0.00 | 0.02 | 0.00 | 74 | 1003.9 |
| 20260902092542 | 61 | 102 | 2.0 | 4.0 | 0.00 | 0.02 | 0.00 | 74 | 1004.0 |
| 20260902092043 | 60 | 92 | 0.0 | 6.0 | 0.00 | 0.02 | 0.00 | 77 | 1004.0 |
| 20260902091601 | 60 | 102 | 1.0 | 6.0 | 0.00 | 0.02 | 0.00 | 76 | 1004.0 |
| 20260902091045 | 59 | 142 | 1.0 | 7.0 | 0.00 | 0.02 | 0.00 | 78 | 1004.2 |
| 20260902090543 | 58 | 89 | 2.0 | 7.0 | 0.00 | 0.02 | 0.00 | 79 | 1004.1 |
| 20260902085542 | 57 | 0 | 1.0 | 7.0 | 0.00 | 0.05 | 0.00 | 82 | 1004.2 |
| 20260902085042 | 56 | 97 | 1.0 | 7.0 | 0.00 | 0.05 | 0.00 | 82 | 1004.2 |
| 20260902084557 | 55 | 96 | 2.0 | 7.0 | 0.00 | 0.05 | 0.00 | 82 | 1004.3 |
| 20260902084043 | 55 | 100 | 2.0 | 7.0 | 0.00 | 0.05 | 0.00 | 83 | 1004.4 |
| 20260902083542 | 54 | 99 | 1.0 | 5.0 | 0.00 | 0.05 | 0.00 | 84 | 1004.3 |
| 20260902083108 | 54 | 118 | 1.0 | 7.0 | 0.00 | 0.05 | 0.00 | 84 | 1004.3 |
| 20260902082543 | 53 | 139 | 2.0 | 7.0 | 0.00 | 0.05 | 0.00 | 84 | 1004.3 |
| 20260902082043 | 53 | 110 | 2.0 | 7.0 | 0.00 | 0.05 | 0.00 | 84 | 1004.3 |
| 20260902081612 | 52 | 103 | 1.0 | 7.0 | 0.00 | 0.05 | 0.00 | 85 | 1004.3 |
| 20260902081042 | 52 | 114 | 2.0 | 7.0 | 0.00 | 0.05 | 0.00 | 85 | 1004.3 |
| 20260902080546 | 51 | 101 | 3.0 | 7.0 | 0.00 | 0.05 | 0.00 | 86 | 1004.3 |
| 20260902080100 | 51 | 0 | 1.0 | 7.0 | 0.00 | 0.05 | 0.00 | 87 | 1004.3 |
| 20260902075542 | 51 | 130 | 2.0 | 6.0 | 0.00 | 0.06 | 0.00 | 87 | 1004.2 |
| 20260902075042 | 50 | 123 | 2.0 | 8.0 | 0.00 | 0.06 | 0.00 | 88 | 1004.2 |
| 20260902074606 | 50 | 104 | 2.0 | 8.0 | 0.00 | 0.06 | 0.00 | 88 | 1004.1 |
| 20260902074043 | 50 | 117 | 0.0 | 4.0 | 0.00 | 0.06 | 0.00 | 89 | 1004.2 |
| 20260902073542 | 49 | 0 | 1.0 | 7.0 | 0.00 | 0.06 | 0.00 | 89 | 1004.2 |
| 20260902073050 | 49 | 136 | 2.0 | 7.0 | 0.00 | 0.06 | 0.00 | 90 | 1004.2 |
| 20260902072541 | 49 | 105 | 2.0 | 7.0 | 0.00 | 0.06 | 0.00 | 91 | 1004.2 |
| 20260902072044 | 48 | 112 | 2.0 | 4.0 | 0.00 | 0.06 | 0.00 | 92 | 1004.3 |
| 20260902071602 | 48 | 106 | 1.0 | 4.0 | 0.00 | 0.06 | 0.00 | 93 | 1004.3 |
| 20260902071041 | 48 | 0 | 0.0 | 3.0 | 0.00 | 0.06 | 0.00 | 93 | 1004.3 |
| 20260902070541 | 47 | 0 | 0.0 | 0.0 | 0.00 | 0.06 | 0.00 | 93 | 1004.3 |
| 20260902070059 | 47 | 0 | 0.0 | 0.0 | 0.00 | 0.06 | 0.00 | 93 | 1004.4 |
| 20260902065542 | 47 | 0 | 0.0 | 0.0 | 0.00 | 0.07 | 0.00 | 93 | 1004.4 |
| 20260902065045 | 46 | 0 | 0.0 | 0.0 | 0.00 | 0.07 | 0.00 | 94 | 1004.4 |
| 20260902064558 | 46 | 0 | 0.0 | 0.0 | 0.00 | 0.07 | 0.00 | 93 | 1004.5 |
| 20260902064042 | 46 | 0 | 0.0 | 0.0 | 0.00 | 0.07 | 0.00 | 93 | 1004.5 |
| 20260902063542 | 45 | 0 | 0.0 | 0.0 | 0.00 | 0.07 | 0.00 | 93 | 1004.6 |
| 20260902063122 | 45 | 0 | 0.0 | 0.0 | 0.00 | 0.07 | 0.00 | 93 | 1004.6 |
| 20260902062542 | 45 | 0 | 0.0 | 0.0 | 0.00 | 0.07 | 0.00 | 93 | 1004.6 |
| 20260902062042 | 44 | 0 | 0.0 | 0.0 | 0.00 | 0.07 | 0.00 | 93 | 1004.6 |
| 20260902061557 | 44 | 0 | 0.0 | 0.0 | 0.00 | 0.07 | 0.00 | 93 | 1004.6 |
| 20260902061042 | 44 | 0 | 0.0 | 0.0 | 0.00 | 0.07 | 0.00 | 93 | 1004.7 |
| 20260902060542 | 43 | 0 | 0.0 | 0.0 | 0.00 | 0.07 | 0.00 | 93 | 1004.7 |
| 20260902060126 | 43 | 0 | 0.0 | 0.0 | 0.00 | 0.07 | 0.00 | 92 | 1004.8 |
| 20260902055542 | 43 | 0 | 0.0 | 0.0 | 0.00 | 0.11 | 0.00 | 92 | 1004.7 |
| 20260902055043 | 43 | 0 | 0.0 | 0.0 | 0.00 | 0.11 | 0.00 | 92 | 1004.8 |
| 20260902054554 | 42 | 0 | 0.0 | 0.0 | 0.00 | 0.11 | 0.00 | 92 | 1004.8 |
| 20260902054047 | 42 | 0 | 0.0 | 0.0 | 0.00 | 0.11 | 0.00 | 91 | 1004.8 |
| 20260902053542 | 42 | 0 | 0.0 | 0.0 | 0.00 | 0.11 | 0.00 | 91 | 1004.8 |
| 20260902053051 | 42 | 0 | 0.0 | 0.0 | 0.00 | 0.11 | 0.00 | 91 | 1004.8 |
| 20260902052542 | 41 | 0 | 0.0 | 0.0 | 0.00 | 0.11 | 0.00 | 90 | 1004.9 |
| 20260902052042 | 41 | 0 | 0.0 | 0.0 | 0.00 | 0.11 | 0.00 | 90 | 1004.9 |
| 20260902051607 | 41 | 0 | 0.0 | 0.0 | 0.00 | 0.11 | 0.00 | 90 | 1005.0 |
| 20260902051042 | 41 | 0 | 0.0 | 0.0 | 0.00 | 0.11 | 0.00 | 90 | 1005.0 |
| 20260902050543 | 41 | 0 | 0.0 | 0.0 | 0.00 | 0.11 | 0.00 | 90 | 1004.9 |
| 20260902050055 | 41 | 0 | 0.0 | 0.0 | 0.00 | 0.11 | 0.00 | 89 | 1005.0 |
| 20260902045546 | 41 | 0 | 0.0 | 0.0 | 0.00 | 0.14 | 0.00 | 89 | 1005.1 |
| 20260902045042 | 41 | 0 | 0.0 | 0.0 | 0.00 | 0.14 | 0.00 | 89 | 1005.0 |
| 20260902044602 | 41 | 0 | 0.0 | 0.0 | 0.00 | 0.14 | 0.00 | 89 | 1005.1 |
| 20260902044044 | 41 | 0 | 0.0 | 0.0 | 0.00 | 0.14 | 0.00 | 89 | 1005.1 |
| 20260902043542 | 41 | 0 | 0.0 | 0.0 | 0.00 | 0.14 | 0.00 | 88 | 1005.1 |
| 20260902043111 | 41 | 0 | 0.0 | 0.0 | 0.00 | 0.14 | 0.00 | 88 | 1005.2 |
| 20260902042542 | 41 | 0 | 0.0 | 0.0 | 0.00 | 0.14 | 0.00 | 88 | 1005.2 |
| 20260902042043 | 41 | 0 | 0.0 | 0.0 | 0.00 | 0.14 | 0.00 | 89 | 1005.2 |
| 20260902041557 | 41 | 0 | 0.0 | 0.0 | 0.00 | 0.14 | 0.00 | 89 | 1005.2 |
| 20260902041042 | 41 | 0 | 0.0 | 0.0 | 0.00 | 0.14 | 0.00 | 89 | 1005.2 |
| 20260902040542 | 41 | 0 | 0.0 | 0.0 | 0.00 | 0.14 | 0.00 | 88 | 1005.2 |
| 20260902040056 | 41 | 0 | 0.0 | 0.0 | 0.00 | 0.14 | 0.00 | 88 | 1005.2 |
| 20260902035541 | 41 | 0 | 0.0 | 0.0 | 0.00 | 0.16 | 0.00 | 88 | 1005.2 |
| 20260902035042 | 41 | 0 | 0.0 | 0.0 | 0.00 | 0.16 | 0.00 | 88 | 1005.3 |
| 20260902034601 | 41 | 0 | 0.0 | 0.0 | 0.00 | 0.16 | 0.00 | 88 | 1005.4 |
| 20260902034043 | 41 | 0 | 0.0 | 0.0 | 0.00 | 0.16 | 0.00 | 88 | 1005.4 |
| 20260902033543 | 41 | 0 | 0.0 | 0.0 | 0.00 | 0.16 | 0.00 | 88 | 1005.4 |
| 20260902033112 | 41 | 0 | 0.0 | 0.0 | 0.00 | 0.16 | 0.00 | 88 | 1005.5 |
| 20260902032542 | 41 | 0 | 0.0 | 0.0 | 0.00 | 0.16 | 0.00 | 88 | 1005.5 |
| 20260902032042 | 41 | 0 | 0.0 | 0.0 | 0.00 | 0.16 | 0.00 | 88 | 1005.5 |
| 20260902031558 | 42 | 0 | 0.0 | 0.0 | 0.00 | 0.16 | 0.00 | 88 | 1005.5 |
| 20260902031042 | 42 | 0 | 0.0 | 0.0 | 0.00 | 0.16 | 0.00 | 88 | 1005.6 |
| 20260902030543 | 42 | 0 | 0.0 | 0.0 | 0.00 | 0.16 | 0.00 | 88 | 1005.6 |
| 20260902025543 | 42 | 0 | 0.0 | 0.0 | 0.00 | 0.21 | 0.00 | 88 | 1005.7 |
| 20260902025043 | 42 | 0 | 0.0 | 0.0 | 0.00 | 0.21 | 0.00 | 89 | 1005.7 |
| 20260902024620 | 42 | 0 | 0.0 | 0.0 | 0.00 | 0.21 | 0.00 | 89 | 1005.7 |
| 20260902024042 | 42 | 0 | 0.0 | 0.0 | 0.00 | 0.21 | 0.00 | 89 | 1005.8 |
| 20260902023542 | 42 | 0 | 0.0 | 0.0 | 0.00 | 0.21 | 0.00 | 88 | 1005.9 |
| 20260902023101 | 42 | 0 | 0.0 | 0.0 | 0.00 | 0.21 | 0.00 | 88 | 1005.8 |
| 20260902022545 | 43 | 0 | 0.0 | 0.0 | 0.00 | 0.21 | 0.00 | 88 | 1005.9 |
| 20260902022041 | 43 | 0 | 0.0 | 0.0 | 0.00 | 0.21 | 0.00 | 89 | 1005.9 |
| 20260902021555 | 43 | 0 | 0.0 | 0.0 | 0.00 | 0.21 | 0.00 | 89 | 1006.0 |
| 20260902021042 | 43 | 0 | 0.0 | 0.0 | 0.00 | 0.21 | 0.00 | 89 | 1005.9 |
| 20260902020542 | 43 | 0 | 0.0 | 0.0 | 0.00 | 0.21 | 0.00 | 89 | 1006.0 |
| 20260902020116 | 43 | 0 | 0.0 | 0.0 | 0.00 | 0.21 | 0.00 | 89 | 1006.0 |
| 20260902015542 | 43 | 0 | 0.0 | 0.0 | 0.00 | 0.22 | 0.00 | 88 | 1006.0 |
| 20260902015042 | 43 | 0 | 0.0 | 0.0 | 0.00 | 0.22 | 0.00 | 88 | 1006.2 |
| 20260902014558 | 43 | 0 | 0.0 | 0.0 | 0.00 | 0.22 | 0.00 | 88 | 1006.2 |
| 20260902014042 | 43 | 0 | 0.0 | 0.0 | 0.00 | 0.22 | 0.00 | 88 | 1006.2 |
| 20260902013545 | 43 | 0 | 0.0 | 0.0 | 0.00 | 0.22 | 0.00 | 88 | 1006.2 |
| 20260902013106 | 43 | 0 | 0.0 | 0.0 | 0.00 | 0.22 | 0.00 | 88 | 1006.3 |
| 20260902012541 | 43 | 0 | 0.0 | 0.0 | 0.00 | 0.22 | 0.00 | 88 | 1006.2 |
| 20260902012042 | 43 | 0 | 0.0 | 0.0 | 0.00 | 0.22 | 0.00 | 88 | 1006.4 |
| 20260902011555 | 43 | 0 | 0.0 | 0.0 | 0.00 | 0.22 | 0.00 | 88 | 1006.2 |
| 20260902011044 | 43 | 0 | 0.0 | 0.0 | 0.00 | 0.22 | 0.00 | 88 | 1006.4 |
| 20260902010541 | 43 | 0 | 0.0 | 0.0 | 0.00 | 0.22 | 0.00 | 88 | 1006.4 |
| 20260902010052 | 44 | 0 | 0.0 | 0.0 | 0.00 | 0.22 | 0.00 | 88 | 1006.5 |
| 20260902005545 | 44 | 0 | 0.0 | 0.0 | 0.00 | 0.23 | 0.00 | 88 | 1006.4 |
| 20260902005042 | 44 | 0 | 0.0 | 0.0 | 0.00 | 0.23 | 0.00 | 88 | 1006.4 |
| 20260902004603 | 44 | 0 | 0.0 | 0.0 | 0.00 | 0.23 | 0.00 | 88 | 1006.3 |
| 20260902004134 | 44 | 0 | 0.0 | 0.0 | 0.00 | 0.23 | 0.00 | 88 | 1006.5 |
| 20260902003542 | 44 | 0 | 0.0 | 0.0 | 0.00 | 0.23 | 0.00 | 88 | 1006.5 |
| 20260902003104 | 44 | 0 | 0.0 | 0.0 | 0.00 | 0.23 | 0.00 | 88 | 1006.6 |
| 20260902002542 | 44 | 0 | 0.0 | 0.0 | 0.00 | 0.23 | 0.00 | 88 | 1006.6 |
| 20260902002041 | 44 | 0 | 0.0 | 0.0 | 0.00 | 0.23 | 0.00 | 88 | 1006.6 |
| 20260902001556 | 45 | 0 | 0.0 | 0.0 | 0.00 | 0.23 | 0.00 | 88 | 1006.6 |
| 20260902001044 | 45 | 0 | 0.0 | 0.0 | 0.00 | 0.23 | 0.00 | 88 | 1006.6 |
| 20260902000542 | 45 | 0 | 0.0 | 0.0 | 0.00 | 0.23 | 0.00 | 88 | 1006.6 |
| 20260902000055 | 45 | 0 | 0.0 | 0.0 | 0.00 | 0.23 | 0.00 | 87 | 1006.6 |
| 20260901235542 | 45 | 0 | 0.0 | 0.0 | 0.00 | 0.23 | 0.00 | 88 | 1006.6 |
| 20260901235042 | 45 | 0 | 0.0 | 0.0 | 0.00 | 0.23 | 0.00 | 88 | 1006.6 |
| 20260901234611 | 45 | 0 | 0.0 | 0.0 | 0.00 | 0.23 | 0.00 | 88 | 1006.7 |
| 20260901234044 | 45 | 0 | 0.0 | 0.0 | 0.00 | 0.23 | 0.00 | 88 | 1006.6 |
| 20260901233542 | 45 | 0 | 0.0 | 0.0 | 0.00 | 0.23 | 0.00 | 88 | 1006.6 |
| 20260901233103 | 46 | 0 | 0.0 | 0.0 | 0.00 | 0.23 | 0.00 | 88 | 1006.7 |
| 20260901232542 | 46 | 0 | 0.0 | 0.0 | 0.00 | 0.23 | 0.00 | 88 | 1006.7 |
| 20260901232042 | 46 | 0 | 0.0 | 0.0 | 0.00 | 0.23 | 0.00 | 88 | 1006.8 |
| 20260901231558 | 46 | 0 | 0.0 | 0.0 | 0.00 | 0.23 | 0.00 | 88 | 1006.8 |
| 20260901231041 | 46 | 0 | 0.0 | 0.0 | 0.00 | 0.23 | 0.00 | 88 | 1006.8 |
| 20260901230542 | 46 | 0 | 0.0 | 0.0 | 0.00 | 0.23 | 0.00 | 89 | 1006.8 |
| 20260901230105 | 46 | 0 | 0.0 | 0.0 | 0.00 | 0.23 | 0.00 | 88 | 1006.8 |
| 20260901225543 | 46 | 0 | 0.0 | 0.0 | 0.00 | 0.23 | 0.00 | 88 | 1006.8 |
| 20260901225042 | 46 | 0 | 0.0 | 0.0 | 0.00 | 0.23 | 0.00 | 88 | 1006.8 |
| 20260901224603 | 47 | 0 | 0.0 | 0.0 | 0.00 | 0.23 | 0.00 | 88 | 1006.9 |
| 20260901224042 | 47 | 0 | 0.0 | 0.0 | 0.00 | 0.23 | 0.00 | 88 | 1007.0 |
| 20260901223542 | 47 | 0 | 0.0 | 0.0 | 0.00 | 0.23 | 0.00 | 88 | 1007.0 |
| 20260901223116 | 47 | 0 | 0.0 | 0.0 | 0.00 | 0.23 | 0.00 | 88 | 1007.1 |
| 20260901222542 | 47 | 0 | 0.0 | 0.0 | 0.00 | 0.23 | 0.00 | 88 | 1007.1 |
| 20260901222042 | 47 | 0 | 0.0 | 0.0 | 0.00 | 0.23 | 0.00 | 88 | 1007.1 |
| 20260901221632 | 48 | 0 | 0.0 | 0.0 | 0.00 | 0.23 | 0.00 | 88 | 1007.1 |
| 20260901221042 | 48 | 0 | 0.0 | 0.0 | 0.00 | 0.23 | 0.00 | 88 | 1007.0 |
| 20260901220542 | 48 | 0 | 0.0 | 0.0 | 0.00 | 0.23 | 0.00 | 88 | 1007.0 |
| 20260901220108 | 48 | 0 | 0.0 | 0.0 | 0.00 | 0.23 | 0.00 | 88 | 1007.1 |
| 20260901215542 | 48 | 0 | 0.0 | 0.0 | 0.00 | 0.23 | 0.23 | 87 | 1007.1 |
| 20260901215043 | 48 | 0 | 0.0 | 0.0 | 0.00 | 0.23 | 0.23 | 87 | 1007.2 |
| 20260901214600 | 48 | 0 | 0.0 | 0.0 | 0.00 | 0.23 | 0.23 | 87 | 1007.2 |
| 20260901214042 | 49 | 0 | 0.0 | 0.0 | 0.00 | 0.23 | 0.23 | 87 | 1007.3 |
| 20260901213542 | 49 | 0 | 0.0 | 0.0 | 0.00 | 0.23 | 0.23 | 87 | 1007.2 |
| 20260901213105 | 49 | 0 | 0.0 | 0.0 | 0.00 | 0.23 | 0.23 | 87 | 1007.2 |
| 20260901212544 | 49 | 0 | 0.0 | 0.0 | 0.00 | 0.23 | 0.23 | 87 | 1007.2 |
| 20260901212042 | 49 | 0 | 0.0 | 0.0 | 0.00 | 0.23 | 0.23 | 87 | 1007.3 |
| 20260901211553 | 49 | 0 | 0.0 | 0.0 | 0.00 | 0.23 | 0.23 | 87 | 1007.3 |
| 20260901211042 | 49 | 0 | 0.0 | 0.0 | 0.00 | 0.23 | 0.23 | 87 | 1007.4 |
| 20260901210542 | 50 | 0 | 0.0 | 0.0 | 0.00 | 0.23 | 0.23 | 87 | 1007.4 |
| 20260901210052 | 50 | 0 | 0.0 | 0.0 | 0.00 | 0.23 | 0.23 | 88 | 1007.4 |
| 20260901205542 | 50 | 0 | 0.0 | 0.0 | 0.00 | 0.23 | 0.23 | 88 | 1007.5 |
| 20260901205043 | 50 | 0 | 0.0 | 0.0 | 0.00 | 0.23 | 0.23 | 88 | 1007.5 |
| 20260901204559 | 50 | 0 | 0.0 | 0.0 | 0.00 | 0.23 | 0.23 | 87 | 1007.4 |
| 20260901204043 | 50 | 0 | 0.0 | 0.0 | 0.00 | 0.23 | 0.23 | 87 | 1007.4 |